Flag for U.S.A. Weather past 2 weeks in Cape Canaveral, Florida, U.S.A.

Now
87 °F

Sunny.


Feels Like: 91 °F
Forecast: 75 / 87 °F
Wind: 6 mph from North

Location: Cape Kennedy

Current Time: Jul 30, 2014 at 6:21:50 PM

Latest Report: Jul 30, 2014 at 5:58 PM


Visibility: 10 mi

Pressure: 29.93 "Hg

Humidity: 54%

Dew point: 69 °F

Location of Cape CanaveralLocation

Historic Weather in Cape Canaveral — Graph

°F

Cape Canaveral temperature yesterday

Maximum temperature yesterday: 90 °F (at 12:04 PM)
Minimum temperature yesterday: 75 °F (at 12:58 PM)
Average temperature yesterday: 82 °F

Past Weeks' High & Low Weather Summary

 TemperatureHumidityPressure
High93 °F (Jul 27, 4:58 PM)97% (Jul 18, 12:58 AM)30.11 "Hg (Jul 18, 12:58 AM)
Low72 °F (Jul 23, 3:58 AM)46% (Jul 30, 12:58 PM)29.92 "Hg (Jul 16, 4:58 PM)
Average81 °F81%30.03 "Hg
* Reported Jul 15 4:01 PM — Jul 30 4:58 PM, Cape Canaveral, Weather by CustomWeather, © 2014

Note: Actual official high and low records may vary slightly from our data, if they occured in-between our weather recording intervals... More about our weather records

Advertising

Cape Canaveral weather history for previous 24 hours

 ConditionsComfort  
Time TempWeatherWind HumidityBarometerVisibility
4:58 PM
Jul 30
88 °FSunny.8 mph54%29.94 "Hg10 mi
3:58 PM88 °FSunny.7 mph53%29.94 "Hg10 mi
2:58 PM89 °FSunny.7 mph50%29.96 "Hg10 mi
2:00 PM88 °FSunny.7 mph59%29.96 "Hg10 mi
12:58 PM89 °FSunny.6 mph46%29.98 "Hg10 mi
11:58 AM88 °FSunny.5 mph52%29.99 "Hg10 mi
10:58 AM85 °FSunny.6 mph66%29.99 "Hg10 mi
9:58 AM83 °FSunny.6 mph71%29.98 "Hg10 mi
8:58 AM81 °FSunny.8 mph80%29.97 "Hg10 mi
7:58 AM79 °FSunny.7 mph90%29.96 "Hg10 mi
6:58 AM77 °FClear.6 mph94%29.95 "Hg10 mi
5:58 AM77 °FClear.7 mph93%29.94 "Hg10 mi
4:58 AM77 °FClear.6 mph93%29.93 "Hg10 mi
3:58 AM78 °FClear.8 mph91%29.93 "Hg10 mi
2:58 AM78 °FClear.7 mph90%29.94 "Hg10 mi
1:58 AM78 °FClear.7 mph91%29.95 "Hg10 mi
12:58 AM78 °FClear.7 mph89%29.96 "Hg10 mi
11:58 PM
Jul 29
78 °FClear.8 mph90%29.96 "Hg10 mi
10:58 PM78 °FClear.8 mph87%29.96 "Hg10 mi
9:58 PM78 °FClear.6 mph86%29.94 "Hg10 mi
8:58 PM78 °FSunny.8 mph83%29.94 "Hg10 mi
7:58 PM78 °FSunny.6 mph89%29.94 "Hg10 mi
7:03 PM81 °FThundershowers. Passing clouds.3 mph84%29.93 "Hg10 mi
6:58 PM80 °FSunny.7 mph87%29.94 "Hg10 mi
Weather by CustomWeather, © 2014

See weather overviewHow to use our weather pages